Find PRAETORIAN SDA_520

NORAD ID: 100078 Int'l Des: 2026-163V Country: USA operational

現在のビュー

3D地球を読み込み中...

About PRAETORIAN SDA_520

PRAETORIAN SDA_520 (NORAD 100078) is a satellite of USA.

次回通過

Passes for default location (London). Set your location on the main map for personalized predictions.

高度履歴

Loading altitude history...

軌道要素

1 A0078U 26206.56164228 .00000097 00000-0 73725-4 0 9999
2 A0078 81.4847 301.7553 0016309 189.2498 170.8362 13.86095809 1213
Epoch: Jul 25, 2026 • Age: 11 hours

現在のステータス

高度 933.3 km
遠地点 / 近地点 N/A
速度 7.39 km/s
衛星直下点 1.25°N, 166.41°E
タイプ other

Most Searched